Woodward, OK

8:16 PM CDT on May 25, 2017 (GMT -0500)
West Woodward

Weather History for KWWR - December, 2012

Change the Weather History Date:

Wednesday, December 12, 2012

  Actual Average (KGAG) Record (KGAG)
Temperature  
Mean Temperature 44 °F -  
Max Temperature 55 °F 52 °F 69 °F (1978)
Min Temperature 32 °F 24 °F -7 °F (1961)
Degree Days  
Heating Degree Days 22    
Moisture  
Dew Point 14 °F    
Average Humidity 33    
Maximum Humidity 48    
Minimum Humidity 20    
Precipitation  
Precipitation 0.00 in - - ()
Sea Level Pressure  
Sea Level Pressure 30.05 in    
Wind  
Wind Speed 17 mph (South)    
Max Wind Speed 28 mph    
Max Gust Speed 36 mph    
Visibility 10 miles    
Events      
Averages and records for this station are not official NWS values.
T = Trace of Precipitation, MM = Missing Value Source: NWS Daily Summary

Daily Weather History Graph

Daily Weather History Graph

Search for Another Location

Airport or City:

Trip Planner

Search our weather history database for the weather conditions in past years. The results will help you decide how hot, cold, wet, or windy it might be!

Date:

Astronomy

Dec. 12, 2012 Rise Set
Actual Time 7:40 AM CST 5:23 PM CST
Civil Twilight 7:12 AM CST 5:52 PM CST
Nautical Twilight 6:39 AM CST 6:24 PM CST
Astronomical Twilight 6:08 AM CST 6:55 PM CST
Moon 6:47 AM CST (12/12) 5:01 PM CST (12/12)
Length of Visible Light 10h 39m
Length of Day
9h 42m
Waning Crescent, 1% of the Moon is Illuminated
Dec 12
Waning Crescent
Dec 13
New
Dec 19
First Quarter
Dec 28
Full
Jan 4
Last Quarter

Hourly Weather History & Observations

Time (CST) Temp. Windchill Dew Point Humidity Pressure Visibility Wind Dir Wind Speed Gust Speed Precip Events Conditions
12:15 AM 35.6 °F 25.9 °F 14.0 °F 41% 30.10 in 10.0 mi South 16.1 mph - N/A   Clear
12:35 AM 35.6 °F 26.6 °F 14.0 °F 41% 30.10 in 10.0 mi South 13.8 mph - N/A   Clear
12:55 AM 33.8 °F 23.9 °F 14.0 °F 44% 30.10 in 10.0 mi South 15.0 mph - N/A   Clear
1:15 AM 33.8 °F 24.3 °F 14.0 °F 44% 30.10 in 10.0 mi SSW 13.8 mph - N/A   Clear
1:35 AM 33.8 °F 23.2 °F 14.0 °F 44% 30.09 in 10.0 mi SSW 17.3 mph - N/A   Clear
1:55 AM 33.8 °F 23.5 °F 14.0 °F 44% 30.09 in 10.0 mi South 16.1 mph - N/A   Clear
2:15 AM 33.8 °F 23.2 °F 14.0 °F 44% 30.09 in 10.0 mi SSW 17.3 mph 21.9 mph N/A   Clear
2:35 AM 33.8 °F 24.3 °F 14.0 °F 44% 30.10 in 10.0 mi SSW 13.8 mph - N/A   Clear
2:55 AM 33.8 °F 23.9 °F 14.0 °F 44% 30.10 in 10.0 mi SSW 15.0 mph - N/A   Clear
3:15 AM 33.8 °F 23.9 °F 14.0 °F 44% 30.10 in 10.0 mi SSW 15.0 mph - N/A   Clear
3:35 AM 32.0 °F 22.1 °F 12.2 °F 44% 30.09 in 10.0 mi SSW 13.8 mph - N/A   Clear
3:55 AM 32.0 °F 21.6 °F 12.2 °F 44% 30.09 in 10.0 mi South 15.0 mph - N/A   Clear
4:15 AM 33.8 °F 24.8 °F 12.2 °F 41% 30.09 in 10.0 mi SSW 12.7 mph - N/A   Clear
4:35 AM 33.8 °F 23.9 °F 12.2 °F 41% 30.09 in 10.0 mi SSW 15.0 mph 19.6 mph N/A   Clear
4:55 AM 32.0 °F 22.1 °F 12.2 °F 44% 30.09 in 10.0 mi South 13.8 mph - N/A   Clear
5:35 AM 33.8 °F 23.5 °F 12.2 °F 41% 30.07 in 10.0 mi South 16.1 mph 24.2 mph N/A   Clear
5:55 AM 33.8 °F 23.5 °F 12.2 °F 41% 30.08 in 10.0 mi SSW 16.1 mph 23.0 mph N/A   Clear
6:15 AM 32.0 °F 23.0 °F 12.2 °F 44% 30.08 in 10.0 mi SSW 11.5 mph - N/A   Clear
6:35 AM 32.0 °F 22.5 °F 12.2 °F 44% 30.10 in 10.0 mi SSW 12.7 mph - N/A   Clear
6:55 AM 32.0 °F 21.6 °F 12.2 °F 44% 30.09 in 10.0 mi South 15.0 mph - N/A   Clear
7:15 AM 32.0 °F 23.0 °F 12.2 °F 44% 30.09 in 10.0 mi South 11.5 mph - N/A   Clear
7:35 AM 32.0 °F 22.5 °F 12.2 °F 44% 30.08 in 10.0 mi South 12.7 mph - N/A   Clear
7:55 AM 32.0 °F 23.0 °F 14.0 °F 48% 30.08 in 10.0 mi SSW 11.5 mph - N/A   Clear
8:15 AM 32.0 °F 24.2 °F 14.0 °F 48% 30.09 in 10.0 mi SSW 9.2 mph - N/A   Clear
8:35 AM 33.8 °F 26.4 °F 14.0 °F 44% 30.09 in 10.0 mi South 9.2 mph - N/A   Clear
8:55 AM 35.6 °F 26.6 °F 14.0 °F 41% 30.09 in 10.0 mi South 13.8 mph 18.4 mph N/A   Clear
9:15 AM 37.4 °F 27.8 °F 14.0 °F 38% 30.08 in 10.0 mi South 17.3 mph 23.0 mph N/A   Clear
9:35 AM 39.2 °F 29.0 °F 14.0 °F 36% 30.08 in 10.0 mi South 21.9 mph 27.6 mph N/A   Clear
9:55 AM 41.0 °F 32.2 °F 14.0 °F 33% 30.08 in 10.0 mi South 18.4 mph 28.8 mph N/A   Clear
10:15 AM 42.8 °F 33.3 °F 14.0 °F 31% 30.07 in 10.0 mi South 24.2 mph 31.1 mph N/A   Clear
10:35 AM 44.6 °F 36.4 °F 14.0 °F 29% 30.07 in 10.0 mi South 20.7 mph 31.1 mph N/A   Clear
10:55 AM 46.4 °F 38.1 °F 14.0 °F 27% 30.07 in 10.0 mi South 24.2 mph 28.8 mph N/A   Clear
11:15 AM 48.2 °F - 14.0 °F 25% 30.06 in 10.0 mi South 24.2 mph 29.9 mph N/A   Clear
11:35 AM 50.0 °F - 14.0 °F 24% 30.05 in 10.0 mi South 23.0 mph 32.2 mph N/A   Clear
11:55 AM 51.8 °F - 14.0 °F 22% 30.05 in 10.0 mi South 21.9 mph 31.1 mph N/A   Clear
12:15 PM 51.8 °F - 14.0 °F 22% 30.04 in 10.0 mi South 23.0 mph 32.2 mph N/A   Clear
12:35 PM 51.8 °F - 14.0 °F 22% 30.02 in 10.0 mi South 26.5 mph 33.4 mph N/A   Clear
12:55 PM 53.6 °F - 14.0 °F 21% 30.02 in 10.0 mi South 25.3 mph 29.9 mph N/A   Clear
1:15 PM 53.6 °F - 14.0 °F 21% 30.02 in 10.0 mi South 27.6 mph 33.4 mph N/A   Clear
1:35 PM 53.6 °F - 14.0 °F 21% 30.01 in 10.0 mi South 23.0 mph 32.2 mph N/A   Clear
1:55 PM 55.4 °F - 14.0 °F 20% 30.01 in 10.0 mi South 21.9 mph 28.8 mph N/A   Clear
2:15 PM 55.4 °F - 14.0 °F 20% 30.00 in 10.0 mi South 24.2 mph 29.9 mph N/A   Clear
2:35 PM 55.4 °F - 14.0 °F 20% 30.00 in 10.0 mi South 17.3 mph 27.6 mph N/A   Clear
2:55 PM 55.4 °F - 14.0 °F 20% 30.00 in 10.0 mi South 16.1 mph 27.6 mph N/A   Clear
3:15 PM 55.4 °F - 14.0 °F 20% 30.00 in 10.0 mi South 21.9 mph 27.6 mph N/A   Clear
3:35 PM 55.4 °F - 14.0 °F 20% 30.00 in 10.0 mi South 15.0 mph 27.6 mph N/A   Clear
3:55 PM 55.4 °F - 14.0 °F 20% 30.00 in 10.0 mi South 20.7 mph - N/A   Clear
4:15 PM 55.4 °F - 14.0 °F 20% 30.00 in 10.0 mi South 18.4 mph 25.3 mph N/A   Clear
4:35 PM 53.6 °F - 14.0 °F 21% 30.00 in 10.0 mi South 16.1 mph 23.0 mph N/A   Clear
4:55 PM 53.6 °F - 14.0 °F 21% 30.00 in 10.0 mi South 13.8 mph 18.4 mph N/A   Clear
5:15 PM 51.8 °F - 14.0 °F 22% 30.00 in 10.0 mi SSE 10.4 mph - N/A   Clear
5:35 PM 50.0 °F - 14.0 °F 24% 30.00 in 10.0 mi SSE 13.8 mph - N/A   Clear
5:55 PM 50.0 °F - 14.0 °F 24% 30.00 in 10.0 mi South 13.8 mph 19.6 mph N/A   Clear
6:35 PM 48.2 °F - 14.0 °F 25% 30.00 in 10.0 mi SSE 12.7 mph - N/A   Clear
6:55 PM 46.4 °F 39.5 °F 15.8 °F 29% 30.00 in 10.0 mi SSE 17.3 mph 20.7 mph N/A   Clear
7:15 PM 48.2 °F - 15.8 °F 27% 30.00 in 10.0 mi SSE 18.4 mph 24.2 mph N/A   Clear
7:35 PM 46.4 °F 39.0 °F 15.8 °F 29% 30.00 in 10.0 mi SSE 19.6 mph 26.5 mph N/A   Clear
7:55 PM 46.4 °F 38.5 °F 15.8 °F 29% 30.00 in 10.0 mi SSE 21.9 mph 31.1 mph N/A   Clear
8:15 PM 46.4 °F 38.3 °F 17.6 °F 32% 30.00 in 10.0 mi South 23.0 mph 31.1 mph N/A   Clear
8:35 PM 48.2 °F - 17.6 °F 30% 30.00 in 10.0 mi South 24.2 mph 32.2 mph N/A   Clear
8:55 PM 46.4 °F 37.9 °F 17.6 °F 32% 30.01 in 10.0 mi South 25.3 mph 34.5 mph N/A   Clear
9:15 PM 46.4 °F 38.1 °F 17.6 °F 32% 30.01 in 10.0 mi South 24.2 mph 34.5 mph N/A   Clear
9:35 PM 46.4 °F 37.5 °F 17.6 °F 32% 30.00 in 10.0 mi South 27.6 mph 33.4 mph N/A   Clear
9:55 PM 46.4 °F 37.5 °F 17.6 °F 32% 30.00 in 10.0 mi South 27.6 mph 35.7 mph N/A   Clear
10:15 PM 46.4 °F 37.7 °F 17.6 °F 32% 30.00 in 10.0 mi South 26.5 mph 35.7 mph N/A   Clear
10:35 PM 44.6 °F 35.5 °F 17.6 °F 34% 30.00 in 10.0 mi South 25.3 mph 34.5 mph N/A   Clear
10:55 PM 44.6 °F 35.3 °F 17.6 °F 34% 30.01 in 10.0 mi South 26.5 mph 34.5 mph N/A   Clear
11:15 PM 46.4 °F 37.7 °F 17.6 °F 32% 30.02 in 10.0 mi South 26.5 mph 33.4 mph N/A   Clear
11:35 PM 44.6 °F 35.7 °F 17.6 °F 34% 30.02 in 10.0 mi South 24.2 mph 29.9 mph N/A   Clear
11:55 PM 44.6 °F 35.9 °F 17.6 °F 34% 30.02 in 10.0 mi South 23.0 mph 29.9 mph N/A   Clear